GOES 18

Last updated on Thu Jul 03 2025 00:02:22 GMT+0000 (Coordinated Universal Time)

1 51850U 22021A 25183.53942796 .00000104 00000+0 00000+0 0 9993 2 51850 0.0250 158.6339 0000272 6.7684 172.5944 1.00271614 3080
UTC large
Height (km)
Speed (km/s)
/
Latitude / Longitude
Inclination (degrees)
Orbital Period (minutes)
Azimuth
Elevation
Range (km)
Doppler Factor

Next 0 passes for location: London (51.5072 / 0.1276)

Sorry there are no passes over London.